Retour au catalogue

DMSP 5D-2 F11 DEB

ActifSSO
NORAD 28300·DEBRIS·🇺🇸 United States

Lancé Nov 28, 1991 depuis Vandenberg Space Force Base

Loading…

Prochains Passages (prochaines 24 heures)

TLE

FraisSource: Space-Track

Époque: Sep 14, 2026, 02:52 UTC

1 28300U 91082M   26257.11983227  .00002048  00000-0  62444-3 0  9995
2 28300  98.5280 309.6408 0006662 358.1121  30.0692 14.43020914165200

Suivez DMSP 5D-2 F11 DEB en temps réel avec AllMySat

Download on the App Store